PEGASUS R/B

基本信息
目录编号:
26562
目录名称:
PEGASUS R/B
国际标识:
2000-061B
轨道中心:
EARTH
物体状态:
在轨
发射日期:
2000-10-09 UTC
国别:
美国 (US)
轨道信息
数据来源: 国际轨道数据
星历时间: 2024-01-05T22:19:16+0800
半长轴: 6884.837km
偏心率: 0.00131
轨道倾角: 1.960°
近地点辐角: 340.450°
升交点赤经: 217.002°
平近点角: 19.504°
近地点: 497.682km
远地点: 515.722km
周期: 94.755分钟
每日圈数: 15.197155
详细信息
发射场:
KWAJL
轨道高度:
LEO
数据来源:
AOE Integration Group
参考系:
TEME
时间系统:
UTC
历元类型:
SGP4
2D轨道图
3D轨道图
轨道高度分析图
轨道倾角分析图
轨道综合分析图
查看轨道综合分析图